This is the latest recevied weather packets stored in our database for station/object N9VPV. If no packets are shown the sender has not sent any weather packets the latest 10 day(s).
| Time | Temp. | Humidity | Pressure | Rain* | Wind** | Luminosity | Snow |
|---|---|---|---|---|---|---|---|
| 1777762612 | 15.56° C | 33% | 1017 hPa | 0 mm | - | 0 W/m² | - |
| 1777761711 | 15.56° C | 33% | 1017.1 hPa | 0 mm | - | 0 W/m² | - |
| 1777760802 | 15.56° C | 32% | 1017.1 hPa | 0 mm | - | 0 W/m² | - |
| 1777759901 | 15° C | 34% | 1017.1 hPa | 0 mm | - | 0 W/m² | - |
| 1777759002 | 15° C | 34% | 1017.2 hPa | 0 mm | - | 0 W/m² | - |
| 1777758102 | 16.11° C | 33% | 1017.3 hPa | 0 mm | - | 49 W/m² | - |
| 1777757201 | 16.11° C | 32% | 1017.4 hPa | 0 mm | - | 91 W/m² | - |
| 1777756302 | 16.11° C | 30% | 1017.5 hPa | 0 mm | - | 54 W/m² | - |
| 1777755399 | 15.56° C | 35% | 1017.5 hPa | 0 mm | - | 167 W/m² | - |
| 1777754500 | 15° C | 38% | 1017.8 hPa | 0 mm | - | 202 W/m² | - |
| 1777753597 | 15° C | 34% | 1017.9 hPa | 0 mm | - | 227 W/m² | - |
| 1777752699 | 14.44° C | 34% | 1018.1 hPa | 0 mm | - | 250 W/m² | - |
| 1777751793 | 15° C | 39% | 1018.3 hPa | 0 mm | - | 88 W/m² | - |
| 1777750894 | 15° C | 39% | 1018.5 hPa | 0 mm | - | 183 W/m² | - |
| 1777749994 | 14.44° C | 37% | 1018.6 hPa | 0 mm | - | 352 W/m² | - |
| 1777749092 | 14.44° C | 35% | 1018.7 hPa | 0 mm | - | 392 W/m² | - |
| 1777748187 | 13.89° C | 44% | 1018.9 hPa | 0 mm | - | 403 W/m² | - |
| 1777747287 | 13.89° C | 34% | 1019.1 hPa | 0 mm | - | 123 W/m² | - |
| 1777746387 | 14.44° C | 35% | 1019.1 hPa | 0 mm | - | 243 W/m² | - |
| 1777745486 | 13.33° C | 44% | 1019.2 hPa | 0 mm | - | 434 W/m² | - |
| 1777744577 | 13.33° C | 35% | 1019.3 hPa | 0 mm | - | 118 W/m² | - |
| 1777743677 | 13.89° C | 37% | 1019.3 hPa | 0 mm | - | 431 W/m² | - |
| 1777742777 | 13.89° C | 35% | 1019.5 hPa | 0 mm | - | 439 W/m² | - |
| 1777741872 | 12.78° C | 39% | 1019.6 hPa | 0 mm | - | 383 W/m² | - |
| 1777740973 | 12.22° C | 38% | 1019.7 hPa | 0 mm | - | 69 W/m² | - |
* Rain latest hour (hover to see other rain measurements)
** Current wind speed in m/s (hover to see current wind gust speed)